GFSNE_sfc_30mbdewp_090.txt.gz
Dewpoint
51 50 49 50 52 52 50 48 46 44 45 47 49 51 51 50 50 50 50 51 51 50 50 50 51 52 52 53 54 55 55 55 56 57 57 57 57 57
54 52 52 51 51 52 52 51 50 46 44 47 48 50 52 52 52 51 51 50 49 49 49 49 49 50 50 51 52 52 53 54 54 55 55 56 57 57
53 53 52 52 51 51 52 51 52 51 47 48 50 50 50 50 51 52 52 51 51 49 48 48 47 47 48 49 49 50 51 52 52 53 54 55 55 55
53 53 52 52 52 51 51 51 50 51 50 48 50 50 50 51 51 51 51 51 51 51 50 48 48 46 46 46 46 47 48 49 50 51 50 52 53 53
53 53 52 53 52 52 52 52 52 52 51 50 49 50 50 51 51 51 51 52 52 52 51 50 49 48 47 46 46 46 46 46 47 48 50 49 48 46
54 53 53 53 53 52 52 52 52 51 51 51 50 50 50 51 51 50 50 51 51 52 52 52 51 50 48 47 47 46 46 47 46 46 44 43 41 39
52 53 53 53 53 53 52 51 51 51 50 49 49 49 49 50 49 50 50 50 50 50 50 50 49 48 47 45 46 46 45 45 44 42 40 37 35 35
51 51 52 51 50 49 50 50 49 50 50 49 49 48 48 48 49 49 49 49 48 51 50 50 46 46 46 45 44 44 42 41 38 37 36 35 34 34
51 51 51 51 50 50 49 47 47 47 48 50 49 48 48 48 48 49 49 49 48 49 47 44 38 38 38 40 41 39 37 37 37 37 37 37 36 35
52 52 52 52 52 51 50 49 47 47 47 46 48 48 49 50 50 49 49 49 40 35 36 40 33 32 35 37 38 38 37 36 36 35 35 34 33 32
53 52 52 52 52 50 50 50 49 49 39 42 39 34 33 33 36 44 43 42 38 30 28 31 30 29 29 29 31 31 31 31 30 30 30 30 29 27
52 52 48 39 37 44 49 50 49 48 35 29 28 28 28 28 28 28 34 41 36 27 25 27 26 27 23 26 25 26 26 27 28 28 28 28 28 27
32 31 31 32 34 35 38 39 38 31 28 27 25 25 24 24 24 25 25 26 24 21 25 26 24 24 23 22 23 24 25 25 25 25 25 26 26 23
28 28 29 29 29 30 29 29 29 27 25 23 22 22 22 22 22 23 23 23 23 22 24 25 22 22 21 20 20 23 24 24 24 24 24 24 23 20
26 25 24 24 23 24 25 25 26 24 23 20 19 19 20 21 23 22 23 20 20 20 20 21 22 22 21 19 19 19 19 21 21 19 16 15 14 12
23 23 23 22 21 21 21 21 21 20 19 18 17 18 19 18 18 20 19 19 15 15 19 19 19 19 17 17 17 15 15 13 12 10 8 9 10 10
19 18 17 17 17 17 17 18 18 18 17 18 17 16 15 15 15 17 17 15 13 12 10 10 11 13 11 13 12 8 7 5 5 7 7 8 8 10
16 15 15 15 15 15 14 14 15 15 16 15 15 14 13 13 12 13 12 12 10 8 7 7 8 6 4 6 7 6 5 3 4 4 4 5 6 8
14 14 13 13 13 13 13 12 12 13 13 13 12 12 11 10 9 9 9 8 7 5 4 6 5 4 0 -1 2 5 3 4 5 5 6 6 8 8
12 11 11 12 11 11 11 10 10 9 9 9 9 9 9 8 7 6 7 7 5 3 3 2 2 2 2 2 3 4 5 5 6 7 7 8 9 9
9 9 10 10 10 10 10 9 8 7 7 7 7 7 7 6 5 5 5 4 3 2 1 1 2 4 4 4 2 1 2 4 6 6 7 8 8 7
6 6 7 7 7 7 6 6 5 5 5 5 4 4 5 5 4 3 3 3 3 3 1 1 2 2 1 0 0 2 3 3 4 5 6 8 9 5
2 3 3 4 4 3 2 1 -0 0 1 2 2 2 0 0 1 2 2 3 2 1 2 1 1 1 0 -0 1 1 1 2 3 4 5 8 10 13

GFSNE_sfc_30mbdewp_093.txt.gz
Dewpoint
52 52 51 51 52 51 52 49 46 44 44 48 49 52 52 52 53 53 53 52 51 50 50 50 51 52 52 53 53 54 55 56 56 57 57 58 58 57
52 51 50 50 52 53 52 52 51 48 46 45 46 50 52 51 51 51 51 51 50 49 49 49 49 50 51 51 51 52 53 54 54 55 55 56 57 58
53 52 51 51 51 51 53 52 51 51 49 49 49 50 52 53 52 53 52 52 51 50 48 48 48 48 48 49 49 50 51 51 52 53 54 54 55 56
51 54 53 53 53 52 52 52 52 51 50 48 49 50 52 52 51 51 51 51 51 51 50 49 48 47 47 47 47 47 48 49 50 50 51 52 53 54
54 53 53 53 53 53 52 51 52 51 51 51 50 50 50 51 52 52 51 52 52 51 50 49 48 48 47 46 46 46 46 46 47 48 48 49 50 51
54 54 54 54 54 54 54 53 53 53 53 52 51 51 51 51 52 51 51 52 52 52 52 51 51 50 48 47 47 46 46 45 45 46 46 46 47 48
54 54 54 54 53 53 53 53 53 53 52 52 51 51 51 51 51 51 51 51 51 53 52 53 53 53 53 50 49 47 46 46 46 45 45 45 45 45
53 54 54 53 53 51 51 52 52 53 52 51 50 49 49 49 49 50 50 49 49 52 52 52 53 52 52 52 50 47 46 44 45 44 43 39 38 37
52 52 52 53 52 53 51 49 49 49 49 51 50 50 49 50 50 49 49 49 49 50 51 50 44 42 38 39 40 42 42 40 38 37 36 36 35 34
53 52 52 52 52 52 51 51 50 50 49 48 49 51 50 44 46 50 50 50 50 41 39 46 34 30 31 32 35 36 35 35 34 33 32 32 31 31
52 45 37 40 37 41 49 51 50 50 36 41 35 31 31 31 32 38 42 42 45 34 28 32 31 26 25 26 30 30 30 30 30 30 30 30 30 30
33 31 31 33 33 36 41 43 46 45 33 29 28 27 27 27 27 27 30 36 36 32 26 28 27 28 22 25 26 27 27 29 29 29 29 29 29 28
28 28 28 29 30 31 32 33 34 30 28 27 25 24 23 23 22 22 22 24 24 21 24 27 26 25 25 22 24 26 26 26 27 27 27 27 26 26
25 26 26 25 25 26 26 26 27 25 24 21 21 20 21 21 21 21 21 21 21 20 23 26 23 24 23 22 21 24 24 25 25 23 24 24 23 22
25 23 23 23 23 23 22 22 22 21 20 18 19 19 21 22 24 23 22 21 20 21 22 22 23 23 23 21 20 19 20 20 20 19 16 15 15 12
23 22 21 21 21 21 22 23 22 22 20 20 20 20 21 19 20 20 19 19 17 15 16 19 19 20 18 18 18 15 13 12 7 7 8 10 12 13
21 21 20 20 20 20 19 20 20 20 20 20 19 18 18 18 17 17 15 13 11 8 7 9 11 12 14 15 11 9 5 3 3 7 6 6 7 9
19 18 18 18 17 17 17 17 17 17 17 17 16 15 13 12 11 11 10 9 7 6 5 5 6 5 5 6 8 4 2 3 3 4 4 6 7 9
16 16 16 16 15 15 14 14 13 12 11 11 11 10 9 9 9 8 8 7 5 2 1 2 3 3 2 2 2 4 4 4 6 7 7 7 8 9
14 14 13 13 12 11 10 9 9 9 9 8 9 9 9 8 6 5 6 6 3 1 0 -0 1 2 3 4 5 5 6 6 7 8 8 9 10 10
11 10 11 10 10 9 9 9 8 8 8 8 7 7 7 6 5 5 4 3 3 1 -0 -1 0 3 2 4 5 5 5 5 6 7 8 9 10 10
8 7 7 7 8 7 7 7 6 6 6 5 6 6 6 5 4 3 4 3 1 2 -0 -0 -0 1 1 0 1 3 3 6 7 7 8 9 11 11
6 5 6 6 5 5 4 4 4 4 4 4 4 4 5 4 3 3 3 2 1 2 1 1 0 0 1 0 1 4 4 5 6 7 10 11 13 16

GFSNE_sfc_30mbdewp_096.txt.gz
Dewpoint
53 53 52 52 53 51 49 46 42 43 41 45 47 51 52 52 53 54 54 53 52 51 50 51 51 52 52 53 53 54 55 55 56 56 57 58 58 58
51 51 52 51 52 52 50 50 51 48 47 45 47 48 51 50 51 53 53 53 52 51 50 50 50 50 51 51 51 52 53 53 54 55 55 56 56 57
50 52 52 51 51 52 54 54 53 52 49 50 49 49 49 49 50 51 52 52 50 49 49 48 48 48 48 48 49 50 50 51 52 52 53 54 55 55
48 51 51 52 51 51 51 51 51 52 51 50 50 49 50 50 51 50 50 50 51 50 50 49 48 47 47 47 47 47 48 48 49 50 51 52 52 53
51 49 49 51 51 52 52 51 52 51 52 52 51 51 51 50 50 52 53 53 52 50 50 49 49 48 48 47 46 46 46 46 46 47 47 48 49 50
54 53 52 51 52 53 53 53 53 53 53 53 52 51 51 51 52 51 51 53 53 51 50 49 50 49 48 48 47 46 46 46 45 45 45 45 46 47
55 55 55 55 54 54 53 53 53 53 53 53 52 52 52 51 50 51 52 52 52 53 52 53 53 53 53 50 50 48 47 46 45 45 45 44 44 44
54 54 54 53 53 52 51 51 52 53 53 53 52 51 51 51 52 52 51 50 49 52 52 52 53 52 47 40 39 41 44 47 46 46 45 44 43 41
54 54 54 54 53 54 53 51 50 49 48 51 52 52 52 52 52 51 51 51 51 51 51 51 42 34 33 33 36 38 39 39 38 38 37 36 35 35
48 41 43 45 41 40 49 53 52 51 50 50 50 46 36 34 37 41 43 43 45 36 37 41 32 26 28 31 32 33 33 33 33 33 33 32 32 32
33 31 33 33 33 34 40 45 49 45 33 32 31 30 29 28 29 37 39 39 41 38 32 34 31 26 26 26 29 31 31 31 31 31 31 31 31 31
29 28 29 30 30 31 36 38 41 33 31 29 26 25 25 24 24 25 27 32 35 33 26 29 29 27 23 26 27 29 29 29 29 30 29 30 30 31
27 27 27 27 27 28 28 28 28 27 25 24 24 23 23 23 23 24 24 24 25 21 25 28 27 28 26 24 26 27 27 28 29 29 27 26 26 26
27 27 26 26 25 25 25 25 24 24 24 23 22 22 23 23 24 24 24 25 25 25 26 30 27 28 26 24 23 24 24 24 24 24 24 25 24 22
25 24 24 25 25 25 24 26 27 26 25 24 23 23 24 25 27 26 25 24 22 22 23 24 25 25 25 24 22 21 22 20 19 15 14 14 14 13
26 26 25 25 24 24 25 26 25 25 25 24 23 24 24 23 22 22 22 22 20 15 14 15 19 21 20 20 19 15 10 11 6 8 9 11 12 14
27 26 25 24 23 22 22 22 22 22 21 22 21 21 21 20 18 18 16 14 12 7 4 6 10 10 12 12 9 3 2 2 4 7 6 8 9 12
23 22 21 21 20 20 20 19 18 17 18 18 17 15 14 13 13 12 11 9 7 4 4 4 7 6 5 7 8 3 5 4 5 6 7 9 10 12
21 20 19 19 18 17 16 15 14 13 12 13 13 13 12 10 11 11 11 8 6 2 0 2 4 6 7 7 5 5 6 7 9 10 10 10 11 12
17 17 16 15 12 11 11 11 12 12 11 10 12 12 12 10 9 7 8 8 5 2 1 -1 0 4 6 8 9 11 9 9 10 11 11 12 13 14
11 11 12 11 11 11 12 11 11 10 10 11 11 10 11 9 8 8 7 5 5 2 1 -0 -0 4 3 6 9 8 8 8 8 10 11 12 13 14
9 8 8 9 9 9 10 10 9 9 8 8 9 9 9 8 7 7 7 6 3 4 1 1 1 2 3 1 2 5 7 10 11 10 10 11 13 14
9 8 8 8 7 7 7 7 7 8 6 7 7 7 8 7 6 6 6 4 3 3 3 3 3 3 3 1 3 7 7 8 9 12 17 15 15 16

GFSNE_sfc_30mbdewp_099.txt.gz
Dewpoint
57 56 54 53 53 52 51 48 45 43 40 47 48 54 54 54 54 55 55 55 52 51 51 51 52 52 52 53 53 53 54 55 55 56 56 57 57 58
55 54 53 53 53 53 52 52 51 48 45 43 47 48 52 50 52 54 55 55 53 52 51 50 50 51 51 51 52 52 52 53 53 54 55 55 56 57
52 52 51 52 52 53 53 52 51 50 49 47 47 50 51 52 52 52 53 53 54 52 51 50 49 49 49 50 49 50 50 51 51 52 53 53 54 55
50 51 49 49 51 52 52 53 54 53 50 50 49 49 50 49 50 50 49 49 51 51 50 49 49 48 48 48 48 48 48 48 49 49 50 51 52 53
51 51 50 51 50 51 50 49 50 50 50 51 49 48 49 51 52 53 53 53 53 51 49 48 48 47 46 46 46 46 46 46 46 46 47 48 48 49
53 52 50 51 49 49 49 49 51 52 51 51 50 50 51 53 53 52 52 53 53 53 52 51 50 49 48 47 47 46 46 46 46 45 45 45 45 45
54 54 53 53 50 51 50 50 51 52 53 52 53 53 53 53 52 53 53 53 53 54 54 55 55 54 44 40 39 40 42 44 45 45 45 44 44 44
55 55 55 54 54 53 52 51 53 54 53 52 52 52 53 53 54 53 53 52 51 54 53 52 51 36 35 35 37 38 40 40 41 41 42 42 43 41
49 50 52 45 43 44 49 50 49 49 46 50 51 51 52 44 43 49 52 52 52 44 45 48 36 32 32 33 34 34 35 35 35 36 35 35 35 34
35 36 37 36 34 36 41 46 45 34 35 36 34 31 30 30 32 38 39 40 43 37 36 41 33 29 30 31 32 32 32 33 33 33 32 32 32 32
31 31 31 31 31 34 40 43 36 30 31 29 28 28 28 27 28 35 33 34 38 34 28 32 31 28 27 27 29 30 30 30 30 31 31 32 32 31
28 28 28 28 29 31 34 37 30 28 27 26 25 25 25 26 27 26 27 30 31 32 26 28 29 28 24 27 28 30 30 30 28 27 27 27 27 31
28 27 28 27 27 27 28 29 28 27 26 25 25 25 25 25 26 26 26 26 26 25 28 30 29 29 27 25 27 27 28 28 29 27 26 24 24 24
27 28 28 26 27 27 27 26 26 27 26 26 25 25 26 26 26 27 26 26 26 25 26 30 28 29 28 26 25 25 24 25 24 23 22 19 18 19
27 26 26 26 26 26 26 27 28 29 28 26 25 25 26 27 27 28 28 28 24 22 22 25 26 27 27 26 24 22 21 22 14 12 13 13 14 14
27 28 27 26 25 26 26 27 26 27 26 25 25 25 26 24 23 24 22 23 19 14 13 14 16 20 20 18 19 16 8 6 6 8 8 12 13 14
28 27 26 25 24 24 23 23 24 24 23 23 23 22 21 21 18 18 16 15 12 8 6 7 9 9 8 12 10 4 4 5 6 9 8 10 13 15
25 23 23 23 22 21 21 20 18 18 18 18 18 16 15 14 14 14 13 11 7 4 3 5 8 11 8 8 4 4 7 6 8 10 12 12 13 17
22 21 21 20 18 17 16 15 15 14 14 14 15 15 14 13 12 12 13 11 8 4 1 1 4 7 10 11 11 11 12 10 10 12 13 13 15 16
17 17 16 15 13 12 12 12 13 13 14 12 13 13 14 12 12 9 7 10 8 4 2 1 1 4 7 8 10 13 12 11 11 11 13 14 16 17
12 12 13 12 12 12 14 13 12 12 12 13 13 12 13 11 10 9 11 8 7 6 3 1 1 5 4 6 9 9 10 11 11 12 13 13 14 15
11 10 10 11 11 11 12 11 11 10 10 10 11 11 12 10 9 9 8 7 6 5 4 3 3 3 5 3 3 7 9 11 13 13 15 14 14 14
11 9 9 9 8 8 9 9 8 9 8 9 8 8 9 8 8 8 7 6 5 5 4 5 5 5 5 4 4 7 10 9 11 12 17 17 16 16